Home   Weather   Nursultan   Past weeks
Flag for Kazakhstan

Past Weather in Nursultan, Kazakhstan — Yesterday and Last 2 Weeks

Now
41 °F

Clear.


Feels Like: 36 °F
Forecast: 48 / 43 °F
Wind: 8 mph from Southwest

Location: Astana

Current Time: Oct 14, 2019 at 9:28:30 am

Latest Report: Oct 14, 2019 at 8:30 am


Visibility: 10 mi

Pressure: 29.95 "Hg

Humidity: 93%

Dew Point: 39 °F

Location of NursultanLocation

Past Weather in Nursultan — Graph

°F

Nursultan Temperature Yesterday

Maximum temperature yesterday: 61 °F (at 3:00 pm)
Minimum temperature yesterday: 36 °F (at 12:00 am)
Average temperature yesterday: 46 °F

High & Low Weather Summary for the Past Weeks

 TemperatureHumidityPressure
High75 °F (Oct 8, 1:30 pm)100% (Oct 2, 7:30 am)30.45 "Hg (Oct 2, 7:30 am)
Low23 °F (Oct 3, 6:00 am)12% (Oct 6, 3:30 pm)29.77 "Hg (Sep 29, 8:00 am)
Average47 °F63%30.20 "Hg
* Reported Sep 29 8:00 am — Oct 14 8:00 am, Nursultan. Weather by CustomWeather, © 2019

Note: Actual official high and low records may vary slightly from our data, if they occured in-between our weather recording intervals... More about our weather records

Advertising

Nursultan Weather History for the Previous 24 Hours

Scroll right to see more
 ConditionsComfort  
Time TempWeatherWind HumidityBarometerVisibility
8:00 am
Mon, Oct 14
41 °FPassing clouds.6 mph93%29.95 "HgN/A
7:30 am41 °FClear.8 mph87%29.95 "Hg10 mi
7:00 am41 °FClear.8 mph93%29.98 "Hg10 mi
6:30 am41 °FClear.8 mph93%29.98 "Hg10 mi
6:00 am41 °FClear.3 mph93%29.98 "Hg10 mi
5:30 am41 °FClear.6 mph87%29.98 "Hg10 mi
5:00 am41 °FClear.3 mph93%29.98 "Hg10 mi
4:30 am41 °FClear.8 mph93%30.01 "Hg10 mi
4:00 am43 °FClear.10 mph87%30.01 "Hg10 mi
3:30 am45 °FClear.10 mph81%30.01 "Hg10 mi
3:00 am45 °FClear.10 mph87%30.01 "Hg10 mi
2:30 am45 °FClear.8 mph87%30.04 "Hg10 mi
2:00 am45 °FClear.10 mph87%30.04 "Hg10 mi
1:30 am45 °FClear.10 mph87%30.04 "Hg10 mi
1:00 am45 °FClear.10 mph87%30.07 "Hg10 mi
12:30 am45 °FClear.8 mph87%30.07 "Hg10 mi
12:00 am45 °FClear.8 mph87%30.07 "Hg10 mi
11:30 pm
Sun, Oct 13
45 °FClear.10 mph87%30.09 "Hg10 mi
11:00 pm45 °FClear.10 mph87%30.09 "Hg10 mi
10:30 pm46 °FClear.8 mph82%30.12 "Hg10 mi
10:00 pm46 °FClear.10 mph82%30.12 "Hg10 mi
9:30 pm46 °FClear.8 mph82%30.12 "Hg10 mi
9:00 pm46 °FClear.10 mph82%30.15 "Hg10 mi
8:30 pm46 °FClear.8 mph82%30.15 "Hg10 mi
8:00 pm46 °FClear.10 mph82%30.15 "Hg10 mi
7:30 pm48 °FClear.10 mph76%30.15 "Hg10 mi
7:00 pm48 °FSunny.10 mph76%30.15 "Hg10 mi
6:30 pm50 °FSunny.13 mph76%30.18 "Hg10 mi
6:00 pm52 °FSunny.13 mph72%30.15 "Hg10 mi
5:30 pm54 °FSunny.15 mph63%30.18 "Hg10 mi
5:00 pm57 °FSunny.17 mph59%30.18 "Hg10 mi
4:30 pm59 °FSunny.13 mph51%30.18 "Hg10 mi
4:00 pm61 °FSunny.13 mph48%30.18 "Hg10 mi
3:30 pm59 °FPassing clouds.10 mph55%30.18 "HgN/A
3:00 pm61 °FPassing clouds.13 mph52%30.21 "HgN/A
2:30 pm59 °FSunny.13 mph55%30.21 "Hg10 mi
2:00 pm59 °FSunny.13 mph55%30.21 "Hg10 mi
1:30 pm59 °FSunny.13 mph51%30.24 "Hg10 mi
1:00 pm55 °FSunny.10 mph63%30.24 "Hg10 mi
12:30 pm54 °FSunny.10 mph72%30.27 "Hg10 mi
12:00 pm52 °FSunny.10 mph72%30.27 "Hg10 mi
11:30 am50 °FSunny.8 mph76%30.27 "Hg10 mi
11:00 am45 °FPartly sunny.6 mph93%30.30 "HgN/A
10:30 am43 °FBroken clouds.6 mph93%30.30 "HgN/A
10:00 am41 °FBroken clouds.3 mph100%30.30 "Hg5 mi
9:30 am39 °FPartly sunny.6 mph100%30.30 "Hg4 mi
9:00 am37 °FPartly sunny.3 mph100%30.30 "Hg5 mi
Weather by CustomWeather, © 2019

See weather overview